GW2055 Weather Reports


Display with metric or nautical units.
time (UTC)temp
F
wind
direction
speed
MPH
gust
MPH
rain 1hr
in
rain 24hr
in
rain mn
in
humidity
%
barometer
mb
20260510154600 61 13 1.0 8.0 0.00 0.00 0.00 73 1018.8
20260510153058 61 348 1.0 7.0 0.00 0.00 0.00 73 1018.7
20260510151603 62 41 1.0 8.0 0.00 0.00 0.00 72 1018.1
20260510150108 62 34 1.0 6.0 0.00 0.00 0.00 70 1018.0
20260510144610 62 314 1.0 7.0 0.00 0.00 0.00 69 1017.7
20260510143102 63 0 1.0 8.0 0.00 0.00 0.00 71 1017.7
20260510141559 63 331 1.0 5.0 0.00 0.00 0.00 73 1017.7
20260510140057 62 0 0.0 4.0 0.00 0.00 0.00 76 1017.9
20260510134558 62 0 0.0 4.0 0.00 0.00 0.00 75 1018.2
20260510133057 62 288 0.0 4.0 0.00 0.00 0.00 74 1018.0
20260510131556 62 0 0.0 3.0 0.00 0.00 0.00 75 1017.7
20260510130108 62 26 0.0 4.0 0.00 0.00 0.00 75 1017.0
20260510124604 62 343 0.0 4.0 0.00 0.00 0.00 75 1016.5
20260510123101 62 335 0.0 4.0 0.00 0.00 0.00 76 1016.0
20260510121559 61 0 0.0 4.0 0.00 0.00 0.00 78 1015.7
20260510120057 61 0 0.0 2.0 0.00 0.00 0.00 80 1015.3
20260510114557 60 0 0.0 2.0 0.00 0.00 0.00 81 1014.8
20260510113100 59 0 0.0 3.0 0.00 0.00 0.00 83 1014.1
20260510111559 58 321 0.0 2.0 0.00 0.00 0.00 83 1014.2
20260510110059 59 0 0.0 2.0 0.00 0.00 0.00 83 1013.6
20260510104559 59 0 0.0 2.0 0.00 0.00 0.00 82 1013.2
20260510103100 60 0 0.0 0.0 0.00 0.00 0.00 81 1013.3
20260510101602 60 0 0.0 1.0 0.00 0.00 0.00 80 1013.2
20260510100105 61 0 0.0 0.0 0.00 0.00 0.00 80 1013.4
20260510094557 62 0 0.0 0.0 0.00 0.00 0.00 78 1013.3
20260510093100 63 0 0.0 2.0 0.00 0.00 0.00 76 1013.3
20260510091601 63 0 0.0 2.0 0.00 0.00 0.00 75 1012.9
20260510090058 64 360 0.0 1.0 0.00 0.00 0.00 74 1012.8
20260510084600 64 0 0.0 2.0 0.00 0.00 0.00 74 1012.4
20260510083059 64 0 0.0 3.0 0.00 0.00 0.00 74 1012.0
20260510081600 64 0 0.0 1.0 0.00 0.00 0.00 72 1011.9
20260510080105 66 0 0.0 0.0 0.00 0.00 0.00 69 1011.7
20260510074600 67 0 0.0 0.0 0.00 0.00 0.00 66 1011.7
20260510073114 67 0 0.0 0.0 0.00 0.00 0.00 64 1011.5
20260510071558 68 0 0.0 0.0 0.00 0.00 0.00 62 1011.3
20260510070106 68 0 0.0 2.0 0.00 0.00 0.00 62 1011.2
20260510064635 68 0 0.0 2.0 0.00 0.00 0.00 63 1011.3
20260510063058 69 0 0.0 0.0 0.00 0.00 0.00 62 1011.5
20260510061557 70 0 0.0 2.0 0.00 0.00 0.00 60 1011.6
20260510060057 71 0 0.0 2.0 0.00 0.00 0.00 57 1011.4
20260510054604 70 0 0.0 3.0 0.00 0.00 0.00 58 1010.7
20260510053056 69 0 1.0 7.0 0.00 0.00 0.00 60 1010.9
20260510051559 66 119 1.0 2.0 0.00 0.00 0.00 73 1012.2
20260510044602 67 0 0.0 3.0 0.00 0.00 0.00 69 1013.3
20260510043056 68 0 0.0 0.0 0.00 0.00 0.00 68 1013.1
20260510041555 68 0 0.0 2.0 0.00 0.00 0.00 65 1013.0
20260510040057 68 0 0.0 1.0 0.00 0.00 0.00 66 1013.0
20260510034617 67 295 0.0 1.0 0.00 0.00 0.00 68 1012.5
20260510033100 66 0 0.0 1.0 0.00 0.00 0.00 70 1012.1
20260510031600 66 0 0.0 0.0 0.00 0.00 0.00 69 1011.8
20260510030106 67 0 0.0 0.0 0.00 0.00 0.00 67 1011.5
20260510024559 68 0 0.0 0.0 0.00 0.00 0.00 63 1011.4
20260510023058 69 0 0.0 0.0 0.00 0.00 0.00 58 1011.0
20260510021603 71 0 0.0 0.0 0.00 0.00 0.00 55 1010.7
20260510020056 72 0 0.0 0.0 0.00 0.00 0.00 52 1010.5
20260510014602 73 0 0.0 0.0 0.00 0.00 0.00 50 1010.2
20260510013135 75 0 0.0 0.0 0.00 0.00 0.00 47 1009.7
20260510011556 76 0 0.0 0.0 0.00 0.00 0.00 43 1009.5
20260510010057 78 0 0.0 1.0 0.00 0.00 0.00 41 1009.2
20260510004559 79 0 0.0 2.0 0.00 0.00 0.00 39 1009.0
20260510003107 80 113 0.0 4.0 0.00 0.00 0.00 38 1008.8
20260510001559 81 128 0.0 3.0 0.00 0.00 0.00 36 1008.5
20260510000126 81 111 0.0 4.0 0.00 0.00 0.00 34 1008.5
20260509234556 82 123 0.0 4.0 0.00 0.01 0.00 32 1008.7
20260509233059 82 0 1.0 8.0 0.00 0.01 0.00 31 1008.7
20260509231616 83 186 1.0 8.0 0.00 0.01 0.00 31 1008.8
20260509230108 83 116 1.0 5.0 0.00 0.01 0.00 33 1008.7
20260509224600 83 75 1.0 4.0 0.00 0.01 0.00 34 1008.7
20260509223111 83 115 1.0 7.0 0.00 0.01 0.00 33 1008.8
20260509221619 85 118 1.0 5.0 0.00 0.01 0.00 35 1008.9
20260509220100 85 0 1.0 7.0 0.00 0.01 0.00 35 1008.9
20260509214603 84 0 0.0 4.0 0.00 0.01 0.00 31 1009.1
20260509213057 84 0 1.0 6.0 0.00 0.01 0.00 33 1009.3
20260509211604 86 0 0.0 3.0 0.00 0.01 0.00 33 1009.5
20260509210100 85 0 0.0 4.0 0.00 0.01 0.00 35 1009.6
20260509204603 86 119 0.0 4.0 0.00 0.01 0.00 34 1009.7
20260509203055 85 0 1.0 6.0 0.00 0.01 0.00 33 1009.9
20260509201559 86 122 0.0 4.0 0.00 0.01 0.00 36 1010.1
20260509200110 86 0 0.0 3.0 0.00 0.01 0.00 35 1010.2
20260509194558 85 193 0.0 3.0 0.00 0.01 0.00 36 1010.3
20260509193056 85 0 0.0 5.0 0.00 0.01 0.00 34 1010.4
20260509191556 84 96 0.0 3.0 0.00 0.01 0.00 36 1010.4
20260509190059 84 181 0.0 4.0 0.00 0.01 0.00 35 1010.5
20260509184558 84 222 1.0 4.0 0.00 0.01 0.00 40 1010.5
20260509183105 83 109 1.0 4.0 0.00 0.01 0.00 42 1010.7
20260509181555 83 0 1.0 4.0 0.00 0.01 0.00 45 1010.9
20260509180056 82 206 0.0 6.0 0.00 0.01 0.00 42 1011.0
20260509174558 82 0 0.0 6.0 0.00 0.01 0.00 56 1011.2
20260509173104 81 0 0.0 6.0 0.00 0.01 0.00 56 1011.4
20260509171557 81 0 0.0 4.0 0.00 0.01 0.00 56 1011.3
20260509170100 80 112 1.0 6.0 0.00 0.01 0.00 58 1011.3
20260509164559 79 0 1.0 4.0 0.00 0.01 0.00 58 1011.4
20260509163102 78 0 0.0 3.0 0.00 0.01 0.00 64 1011.4
20260509161603 77 202 0.0 3.0 0.00 0.01 0.00 67 1011.4
20260509160056 75 0 0.0 4.0 0.00 0.01 0.00 68 1011.4